Regional Weather Roundup
Issued by NWS

Home | Current Version | Previous Version | Graphics & Text | Print | Product List | Glossary On
Versions: 1 2 3 4 5 6 7 8 9 10 11 12 13 14 15 16 17 18 19 20 21 22 23 24 25 26 27 28 29 30 31 32 33 34 35 36 37 38 39 40 41 42 43 44 45 46 47 48 49 50
000
ASUS43 KOAX 251102
RWRNE

WEATHER ROUNDUP FOR NEBRASKA
NATIONAL WEATHER SERVICE OMAHA NE
600 AM CDT WED MAY 25 2016

NOTES: SATELLITE DATA IS BEING USED TO AUGMENT CLOUD COVER ABOVE
       12000 FEET.
       "FAIR" INDICATES FEW OR NO CLOUDS BELOW 12,000 FEET WITH NO
       SIGNIFICANT WEATHER AND/OR OBSTRUCTIONS TO VISIBILITY.

  * THESE STATIONS DO NOT REPORT WEATHER SUCH AS RAIN...SNOW OR FOG.

NEZ001>004-019>022-054>056-251200-
NEBRASKA PANHANDLE

CITY           SKY/WX    TMP DP  RH WIND       PRES   REMARKS
SCOTTSBLUFF    CLOUDY    51  47  86 VRB5      29.91R
ALLIANCE       CLOUDY    51  50  96 CALM      29.87S
CHADRON        CLOUDY    44  32  62 SW7       29.87R
SIDNEY         MOCLDY    48  47  96 N3        29.92R
$$

NEZ057>060-069>072-079>082-251200-
SOUTHWEST NEBRASKA

CITY           SKY/WX    TMP DP  RH WIND       PRES   REMARKS
NORTH PLATTE   CLOUDY    55  54  96 CALM      29.86R
IMPERIAL       CLOUDY    58  49  72 N7        29.90R
LEXINGTON      CLOUDY    58  55  89 SE9       29.87F
MCCOOK         CLOUDY    59  54  83 E9        29.86R
$$

NEZ005>010-023>029-035>040-094-251200-
NORTH CENTRAL NEBRASKA

CITY           SKY/WX    TMP DP  RH WIND       PRES   REMARKS
VALENTINE      CLOUDY    57  54  89 NE5       29.82F
AINSWORTH      CLOUDY    56  55  95 N5        29.80F
BROKEN BOW     CLOUDY    58  55  90 SE9       29.82F
ORD            LGT RAIN  59  57  93 S8        29.87R
$$

NEZ041-046>049-061>064-073>077-083>087-251200-
SOUTH CENTRAL NEBRASKA

CITY           SKY/WX    TMP DP  RH WIND       PRES   REMARKS
GRAND ISLAND   RAIN      60  58  92 W5        29.93R FOG
HASTINGS       TSTM      61  61 100 NW14      29.93R FOG
KEARNEY *      CLOUDY    59  55  88 N17       29.88F
YORK           LGT RAIN  63  61  94 E9        29.84F
$$

NEZ011>018-030>034-042>045-251200-
NORTHEAST NEBRASKA

CITY           SKY/WX    TMP DP  RH WIND       PRES   REMARKS
NORFOLK        RAIN      61  58  90 SW8       29.85R FOG
ALBION         RAIN      59  57  93 W3        29.89R
BLAIR          CLOUDY    68  57  68 NW8       29.84R
FREMONT        CLOUDY    64  58  81 SW7       29.85R
TEKAMAH        CLOUDY    63  59  87 CALM      29.82S
$$

NEZ050>053-065>068-078-088>093-251200-
SOUTHEAST NEBRASKA

CITY           SKY/WX    TMP DP  RH WIND       PRES   REMARKS
LINCOLN        LGT RAIN  65  58  78 CALM      29.85F
OMAHA EPPLEY   LGT RAIN  65  60  84 NW5       29.82R
FALLS CITY     MOCLDY    65  59  81 SW14G22   29.79R
PLATTSMOUTH    CLOUDY    64  62  93 W5        29.85R
$$

NEZ044-045-051>053-067-251200-
OMAHA AREA

CITY           SKY/WX    TMP DP  RH WIND       PRES   REMARKS
OMAHA EPPLEY   LGT RAIN  65  60  84 NW5       29.82R
BLAIR          CLOUDY    68  57  68 NW8       29.84R
FREMONT        CLOUDY    64  58  81 SW7       29.85R
PLATTSMOUTH    CLOUDY    64  62  93 W5        29.85R
$$



USA.gov is the U.S. government's official web portal to all federal, state and local government web resources and services.